Wind_Gust
12 13 13 13 13 13 13 13 14 14 14 14 14 14 14 14 14 15 16 17 18 18 19 19 19 19 20 22 23 23 23 26 28 24 23 27 8 12 13 14 11 8 9 14 17 18 20 20 22 20 22 21 23 24 22 22 20 18 22 21 22 23 24 22 17 18 18 15 14 13 15 14 17 18 14 12 11 14 16 19 21 26 28 29 28 27 25 23
12 12 12 12 12 13 13 13 13 14 14 14 14 14 15 14 15 15 17 16 18 19 19 20 20 19 21 22 23 22 25 26 26 27 32 14 17 14 13 10 11 10 10 19 20 19 19 20 20 20 23 24 17 25 18 25 21 22 21 24 24 23 24 20 14 26 12 17 11 17 10 9 18 19 19 22 16 18 20 18 17 32 34 28 25 24 24 21
12 12 12 12 12 13 13 13 14 14 14 14 15 15 14 14 15 16 16 17 17 18 19 20 20 21 21 22 23 20 26 26 26 29 29 23 20 17 15 14 13 12 20 21 20 20 21 18 19 21 22 24 22 24 20 23 24 23 23 24 26 24 23 13 13 14 13 11 13 13 14 11 16 19 26 24 19 17 18 24 22 28 29 27 25 22 21 19
13 12 12 12 12 12 13 13 14 15 16 16 16 17 16 14 15 15 16 17 17 18 19 20 20 21 22 23 21 28 23 25 27 20 18 10 17 16 16 15 14 15 22 24 21 21 20 19 19 21 21 24 21 22 23 20 23 21 27 27 24 15 24 11 9 13 12 9 12 9 13 8 14 12 22 17 19 18 17 20 19 25 27 27 23 21 20 18
13 13 13 13 13 12 13 14 14 15 16 17 16 16 16 16 15 15 16 17 17 18 19 21 21 22 23 23 22 25 22 19 18 20 14 11 11 10 9 12 12 21 24 22 23 23 21 22 20 21 24 24 22 20 20 20 23 18 24 25 29 19 19 12 17 14 9 9 8 10 19 18 20 8 19 12 16 19 13 17 18 28 29 26 25 21 20 17
13 13 13 13 13 13 14 14 15 15 16 16 16 16 17 16 16 15 15 16 17 18 18 20 20 21 24 24 29 21 18 18 17 18 11 11 12 10 11 12 11 21 22 24 24 20 21 21 22 23 25 24 21 23 20 22 21 26 20 25 24 20 18 11 10 14 7 14 15 14 12 16 15 17 14 17 14 22 25 21 26 31 28 25 26 24 17 16
13 13 13 13 13 13 14 15 15 15 16 16 16 16 15 15 15 16 16 15 17 18 18 20 20 22 22 24 30 20 23 33 12 19 13 15 10 11 11 13 11 19 23 26 25 27 23 23 23 21 22 23 23 26 20 21 20 23 26 17 22 11 22 15 11 13 15 17 15 11 12 15 14 17 20 18 15 28 31 29 29 28 25 25 25 17 16 14
13 13 13 13 13 14 14 15 16 15 16 16 16 15 14 14 14 15 15 15 16 17 19 19 20 21 21 25 21 22 25 28 23 23 14 13 17 16 14 16 19 21 24 28 26 27 22 27 26 23 26 24 18 23 17 21 21 25 29 22 16 20 23 11 14 13 16 18 9 9 13 16 18 15 20 19 15 13 27 28 28 29 29 24 23 19 13 12
12 13 13 13 13 14 15 15 15 16 16 16 16 15 15 14 13 14 15 15 16 16 18 19 19 19 20 21 20 22 27 26 19 22 24 19 17 19 18 19 21 23 26 27 27 26 24 26 28 26 24 24 21 20 20 21 26 24 24 21 17 14 16 17 13 14 16 15 17 15 19 14 19 13 24 16 16 17 20 22 28 26 27 24 24 22 15 10
14 12 13 14 14 14 14 15 16 16 16 16 16 15 15 14 13 13 14 14 15 16 17 19 19 19 23 21 20 21 21 21 22 18 20 15 19 18 19 18 22 24 26 26 26 27 28 26 25 22 26 24 19 22 17 19 21 21 24 23 21 16 17 15 17 18 15 21 19 18 17 18 14 22 23 16 18 15 16 20 26 30 26 26 25 21 13 9
14 13 13 14 14 14 14 16 16 16 16 16 16 14 14 14 13 13 13 14 14 16 16 17 18 19 22 18 24 24 14 15 12 14 11 12 15 18 18 20 20 25 26 25 28 27 25 25 22 22 25 28 17 22 21 21 24 11 17 21 22 19 17 18 20 21 20 25 17 23 19 16 17 22 19 23 22 17 17 17 29 31 28 29 22 20 16 11
14 14 13 13 14 14 14 15 16 17 16 16 14 14 13 13 13 13 13 13 15 14 15 15 17 23 21 23 26 30 11 14 13 12 17 16 17 20 19 20 21 22 24 27 27 26 26 26 23 26 26 17 29 17 23 23 21 19 17 21 20 22 25 19 21 23 23 24 17 21 20 20 21 28 16 24 20 20 19 28 39 34 32 31 25 21 17 15
15 14 14 14 14 14 14 15 16 16 16 15 14 13 13 13 13 13 13 14 14 14 14 15 16 20 21 24 31 35 37 25 15 9 13 12 18 17 16 15 16 19 23 25 25 25 24 26 24 25 28 22 16 29 14 20 21 21 16 19 20 24 25 20 19 23 22 21 24 23 27 22 23 26 15 19 17 18 19 27 32 33 31 29 27 23 19 15
16 15 15 14 14 14 14 14 15 15 15 15 14 13 13 11 11 12 13 14 13 14 15 15 21 21 21 28 25 28 28 29 25 23 16 17 15 17 20 17 18 20 21 24 24 23 24 24 23 26 22 24 23 18 19 19 20 27 20 21 26 25 28 24 27 21 22 23 24 23 24 23 23 25 22 19 17 19 14 24 31 32 30 27 24 24 20 16
16 16 15 15 14 14 14 14 14 15 15 15 14 13 11 12 13 14 13 14 16 14 14 14 21 20 20 29 29 36 30 34 30 23 22 22 21 19 19 18 20 20 22 22 25 23 22 23 25 25 27 21 28 20 20 22 23 25 27 27 25 26 23 27 27 26 30 25 24 25 29 23 29 27 23 18 19 18 20 22 33 29 28 25 23 22 21 18
17 16 16 15 15 13 13 14 14 15 15 15 15 14 14 16 17 16 16 15 17 15 21 20 21 22 22 30 25 13 34 34 30 25 22 22 23 22 18 18 15 19 19 21 22 23 25 24 28 22 23 23 26 22 20 25 25 27 27 19 26 25 23 26 31 28 30 28 22 25 27 27 30 27 22 21 18 16 22 32 31 30 26 25 23 20 19 19
17 17 16 15 15 14 13 13 14 14 15 15 14 17 20 20 21 19 16 15 18 21 19 20 18 24 19 16 22 24 29 32 25 28 26 26 23 23 21 20 21 20 18 19 24 22 21 25 19 24 26 28 24 23 24 25 24 26 26 27 22 25 25 25 30 30 30 24 26 29 32 14 23 20 21 21 19 17 18 31 32 29 25 23 22 21 18 16
18 17 16 15 14 13 12 13 14 15 14 13 14 20 28 17 9 9 13 17 20 20 21 26 26 21 38 40 32 26 24 25 31 30 26 27 26 23 24 26 18 21 21 23 24 23 24 27 26 27 25 28 27 29 30 27 26 24 24 25 25 24 29 23 36 31 30 27 25 26 28 17 16 17 18 20 19 19 18 27 30 28 25 23 24 24 21 18
18 17 17 16 13 13 12 12 14 13 13 11 19 25 25 22 26 21 20 20 20 18 19 27 27 30 14 19 38 25 27 25 24 27 29 29 28 26 25 20 21 25 28 26 26 25 28 26 25 28 32 31 30 30 29 23 24 23 23 25 25 24 31 34 30 29 30 30 27 26 28 24 18 16 14 18 17 24 19 19 29 28 25 25 26 23 18 16
21 18 16 16 14 12 11 11 12 13 12 14 22 26 22 19 19 21 27 26 28 25 19 24 37 32 32 29 28 33 20 28 30 29 25 29 30 27 27 26 24 27 28 30 28 31 24 30 33 34 29 29 27 28 28 29 22 21 22 23 29 25 25 23 26 28 31 30 27 25 23 22 20 18 15 13 12 11 18 13 15 22 25 26 25 19 17 17
20 19 18 16 14 12 11 10 11 12 9 19 19 22 24 25 22 17 27 28 27 28 32 27 31 30 35 30 22 27 19 20 25 27 28 28 26 27 32 30 31 31 32 26 27 27 28 31 33 28 28 26 27 25 25 31 29 23 22 23 28 26 26 24 26 30 33 29 26 25 27 22 21 18 16 16 16 14 12 13 25 28 30 27 25 24 18 18
17 19 18 16 13 12 10 11 11 11 11 19 20 27 28 26 23 13 15 24 27 32 31 36 29 30 32 32 33 16 13 26 25 23 26 29 31 35 29 32 31 32 27 30 28 31 35 36 29 27 27 26 24 26 26 30 28 27 25 23 27 25 24 21 23 30 30 29 26 28 30 25 20 19 17 19 20 25 29 30 26 25 25 24 22 24 21 18
19 19 17 17 15 10 11 10 11 10 19 22 24 25 32 24 24 20 18 23 25 26 36 35 33 33 35 30 27 12 21 26 34 31 37 31 30 35 30 35 31 29 32 32 34 30 33 32 28 27 27 28 26 27 27 30 28 25 23 22 28 22 28 27 24 31 27 32 25 33 33 26 24 19 19 18 20 23 25 23 23 22 24 24 21 20 20 18
20 16 14 14 11 10 9 9 6 14 23 23 25 29 24 24 21 17 21 27 26 26 33 34 31 33 36 33 26 23 23 30 27 32 31 39 35 30 33 32 29 33 36 34 32 31 29 21 26 28 28 30 29 27 27 29 27 24 24 23 25 25 28 25 26 26 24 29 26 27 29 26 24 21 21 20 20 19 16 17 18 18 19 19 20 20 19 18
19 16 12 13 12 10 7 5 17 24 21 24 28 28 25 25 22 13 18 25 33 39 24 30 33 35 32 26 24 32 23 27 27 26 36 35 35 36 31 35 34 34 29 32 33 32 28 25 26 31 30 30 31 29 31 28 26 25 26 25 22 23 24 26 25 27 27 29 32 24 30 28 24 23 25 24 21 20 16 15 16 15 15 15 18 18 17 17
19 17 15 14 12 9 4 13 21 24 22 26 29 27 28 23 14 17 17 26 27 25 33 38 36 40 39 36 29 29 21 35 25 27 33 33 28 34 34 35 37 32 31 31 36 36 26 25 28 32 31 31 31 30 27 28 26 23 30 27 27 23 28 24 28 26 26 30 27 23 29 26 24 28 26 26 21 21 17 14 14 15 14 14 16 16 16 16
16 16 14 12 11 7 14 20 12 14 22 28 27 11 12 17 8 14 19 23 29 30 40 30 38 42 47 31 36 26 36 36 26 25 33 35 35 32 31 28 33 27 33 29 35 39 29 27 28 29 32 34 32 34 31 32 28 31 19 25 25 26 28 26 30 28 27 21 25 28 33 27 30 31 30 27 25 22 18 15 15 14 15 16 15 15 14 16
18 15 13 11 10 12 19 20 19 18 16 16 12 11 11 12 8 10 16 15 27 34 44 40 36 36 39 33 34 38 22 21 36 33 25 33 32 34 37 29 31 29 28 33 33 19 24 29 29 30 30 35 35 30 24 30 35 26 21 23 27 26 26 26 31 29 24 23 31 32 29 34 27 25 31 27 26 22 20 16 15 15 15 14 14 15 16 16
13 13 12 10 11 15 21 21 19 22 19 10 11 12 17 8 10 17 21 17 26 29 35 35 31 33 31 34 40 31 32 32 33 27 25 30 36 28 39 29 29 28 28 31 32 29 30 29 26 26 31 33 28 30 28 29 34 26 22 22 27 25 25 25 29 28 25 28 26 27 31 36 25 29 31 29 24 26 24 19 16 16 15 14 15 13 14 14
13 10 9 9 12 18 20 21 25 22 21 16 11 11 8 11 13 16 24 22 26 28 27 33 33 30 33 41 40 34 36 28 29 33 30 38 35 31 30 23 28 30 33 32 34 28 26 23 27 33 34 29 26 28 29 27 28 22 29 24 26 23 23 25 23 26 25 31 31 25 29 31 26 25 34 36 36 29 28 22 19 17 17 16 14 13 13 14
9 9 9 9 20 18 17 20 19 23 21 13 12 11 12 14 21 25 21 28 23 25 24 35 31 31 37 38 40 37 36 29 33 35 35 30 35 34 28 34 31 31 31 33 37 32 28 29 34 32 22 26 23 30 27 25 25 29 32 29 25 24 21 23 28 26 31 34 29 27 28 29 31 21 20 20 20 28 29 26 24 20 19 18 15 15 13 14
7 8 10 18 21 18 18 14 12 25 20 13 11 14 17 19 21 27 22 18 22 29 28 31 29 38 37 34 30 43 47 34 29 44 39 39 35 42 38 35 38 39 37 35 36 33 35 35 27 30 26 26 29 28 30 29 27 34 30 29 29 29 27 29 31 38 38 36 27 29 26 27 24 14 18 24 29 26 23 25 25 22 20 18 17 15 14 14
7 8 12 19 16 19 19 18 16 14 10 12 14 15 15 20 26 26 31 24 14 26 30 25 30 32 33 33 35 38 36 34 29 35 33 37 35 35 30 34 31 36 36 31 29 35 32 27 31 28 25 31 27 34 32 33 33 34 35 31 31 35 32 26 32 30 31 31 25 29 27 22 21 17 19 25 25 26 25 24 23 21 20 18 17 16 15 16
8 10 18 18 21 21 16 17 13 9 10 12 17 19 17 17 24 20 25 24 13 21 16 29 29 30 34 44 31 37 42 32 31 40 36 36 38 37 38 36 33 34 29 34 41 36 33 37 37 34 37 31 36 32 26 24 30 35 29 32 28 31 38 28 32 32 29 24 27 20 32 25 22 12 14 27 27 25 24 25 22 20 19 17 17 17 16 15
7 14 17 17 21 22 18 19 12 12 10 15 19 22 23 27 22 26 25 20 14 15 19 20 32 32 35 35 29 38 35 40 34 33 37 36 39 40 41 40 38 33 30 32 34 31 34 34 28 33 22 32 34 30 29 28 26 32 33 28 32 35 25 29 21 24 22 27 26 22 12 11 17 20 19 23 24 25 24 24 22 20 18 17 16 16 15 15
8 17 16 20 20 19 19 19 13 12 15 16 21 25 32 27 18 12 14 20 18 17 18 20 25 34 33 34 31 34 37 32 37 34 36 34 35 38 34 36 45 38 36 37 29 33 35 39 28 35 30 29 34 30 36 30 35 31 33 40 35 26 28 16 15 19 9 12 24 25 19 23 18 12 22 23 24 25 25 25 24 22 20 17 17 16 15 15
16 12 16 18 22 20 20 19 17 15 17 21 21 27 25 24 15 17 10 16 20 24 18 23 37 32 35 37 35 36 42 37 38 37 34 32 39 36 40 34 32 37 34 32 33 32 27 31 27 33 33 27 29 30 31 31 28 32 38 33 24 26 25 22 24 19 21 24 22 22 28 22 24 19 18 23 23 22 22 23 22 21 20 19 17 15 15 14
12 11 18 20 21 21 20 21 19 18 20 20 24 15 17 23 19 22 18 16 21 16 17 21 22 26 33 34 36 38 37 38 34 39 30 36 41 35 33 44 37 38 33 32 27 31 32 32 34 30 30 29 27 31 32 30 34 33 29 20 37 29 28 27 22 25 25 27 28 22 27 27 24 23 25 24 26 24 22 23 22 21 20 20 17 16 15 12
15 15 18 22 24 22 24 22 21 21 19 23 22 23 24 27 20 18 15 16 18 15 18 14 18 26 26 31 27 35 40 45 35 37 34 40 39 41 40 32 37 38 37 35 36 28 29 28 29 30 32 29 30 31 34 33 34 33 23 34 29 28 28 27 30 21 24 23 24 20 21 20 17 30 29 29 26 26 23 21 20 20 19 19 18 15 14 12
15 12 15 18 18 21 22 22 22 21 22 23 22 26 17 17 14 18 21 22 23 19 14 13 15 17 25 23 26 35 40 36 33 36 33 36 37 36 41 33 34 41 36 35 31 23 27 21 23 32 30 29 39 41 36 34 36 40 36 33 35 33 18 26 25 32 25 24 27 19 19 16 13 10 26 25 26 26 25 24 20 20 18 18 17 15 13 13
9 11 12 16 18 21 24 23 24 25 25 24 22 23 18 18 14 23 32 28 27 10 13 10 14 18 15 21 30 29 38 37 34 35 33 29 36 37 37 37 30 37 39 36 32 27 21 26 22 28 37 36 32 31 31 35 35 37 35 32 32 32 30 32 32 34 36 28 25 26 20 16 12 19 12 27 25 25 24 23 22 19 19 18 17 15 14 13
11 9 19 20 18 21 24 23 26 21 26 24 23 23 20 14 19 28 31 28 18 18 18 14 11 16 17 21 25 29 34 39 33 30 28 26 30 25 31 35 31 32 45 40 35 26 23 21 23 29 35 35 30 28 31 32 33 33 35 32 32 31 32 30 32 25 28 30 22 15 18 7 13 15 16 22 25 26 24 23 23 20 19 18 18 17 15 13
10 11 15 21 20 22 23 20 19 23 24 25 19 21 19 17 23 28 30 14 19 14 13 12 12 16 16 23 25 26 29 39 33 31 24 27 28 28 27 35 32 34 36 40 32 30 10 24 28 27 27 30 30 28 31 31 30 32 34 31 31 34 33 29 28 20 22 18 24 16 12 10 10 19 14 24 26 24 24 22 24 22 19 20 18 17 16 15
8 13 18 16 18 21 21 21 19 20 24 22 22 25 15 23 26 24 22 11 16 10 10 12 14 13 21 26 28 24 25 28 30 26 29 23 31 27 25 34 33 38 37 28 31 30 31 21 25 27 29 30 27 29 34 33 38 36 34 35 30 29 28 28 25 14 23 25 22 18 17 14 13 8 17 25 26 25 24 22 22 22 20 19 19 17 16 16
9 13 16 22 20 20 23 18 16 12 21 21 22 20 19 26 23 20 15 17 16 14 10 13 13 16 27 23 25 22 25 25 30 29 22 20 22 29 24 32 32 27 31 25 13 32 24 19 25 28 29 34 38 41 42 40 42 37 32 33 34 36 31 31 28 24 23 18 25 19 17 19 21 15 20 22 24 24 22 23 21 19 20 20 19 18 18 17
12 9 21 20 22 21 24 20 19 18 20 22 19 20 15 21 18 17 15 15 15 15 17 13 16 20 24 21 20 22 25 25 27 30 29 25 23 36 27 31 31 30 29 14 22 25 24 20 21 24 29 27 28 24 18 26 29 41 29 30 34 35 35 25 19 24 28 16 15 17 32 30 23 24 25 24 26 25 24 22 23 21 19 20 18 19 18 17
10 14 20 18 18 21 21 21 22 19 18 17 20 12 17 19 15 15 11 18 11 15 16 17 18 19 18 19 14 22 22 22 26 27 26 22 24 29 27 29 31 28 21 17 19 22 18 21 23 19 22 11 14 20 23 25 31 27 26 27 29 31 27 23 23 28 12 19 12 9 33 36 27 25 23 25 23 23 23 23 22 21 20 20 19 19 16 18
14 17 19 19 20 18 22 20 21 16 27 27 25 13 15 17 13 14 10 16 17 12 14 13 20 22 20 16 14 18 17 23 26 25 27 22 26 24 33 29 31 20 25 30 25 21 25 20 12 11 13 17 13 13 20 28 26 27 28 25 23 23 26 22 16 12 16 8 16 21 23 30 26 24 24 23 22 23 22 21 20 20 22 22 21 20 19 18
15 19 18 13 15 16 18 19 20 17 19 16 17 14 16 15 15 16 15 14 12 15 17 14 17 17 19 18 17 17 8 17 22 20 15 13 17 25 25 28 27 20 28 28 30 22 20 18 14 16 17 20 13 13 13 24 26 26 26 25 21 20 19 18 14 22 23 22 30 31 24 26 26 25 24 20 18 21 22 20 21 21 21 21 21 20 20 18
15 14 13 18 14 17 19 16 16 13 13 10 9 10 16 16 18 15 14 15 13 17 14 21 20 19 18 18 19 19 12 14 15 9 13 11 10 16 23 22 24 22 28 29 29 18 20 17 15 19 19 19 14 9 11 12 12 25 25 26 22 10 16 14 26 32 32 27 27 30 30 26 21 22 23 20 18 21 20 21 20 19 20 20 20 20 18 17
8 8 12 11 14 13 15 13 14 11 11 9 14 14 14 16 16 14 18 16 19 18 15 18 18 19 17 15 18 17 14 14 14 13 20 20 15 15 16 26 21 24 25 25 22 21 20 12 16 21 18 19 20 16 12 14 18 18 16 16 18 20 16 16 22 19 30 28 31 32 28 23 22 25 23 21 21 22 23 21 21 20 19 20 20 19 18 17
14 7 9 10 10 6 8 6 6 8 7 9 11 12 11 13 14 14 19 17 21 21 19 17 18 19 16 12 17 16 16 17 14 17 23 19 15 17 14 18 25 27 26 26 17 18 20 17 17 19 19 17 17 17 20 19 19 17 14 18 14 18 15 15 16 12 27 36 29 21 21 28 31 28 30 24 23 22 21 20 20 20 19 19 19 19 18 17
Wind_Speed
9 9 9 9 10 10 10 10 10 11 11 11 11 11 11 11 11 11 12 13 15 14 15 16 16 16 16 18 18 19 19 13 16 13 12 15 2 9 11 12 9 7 6 6 8 10 11 10 12 12 10 9 9 10 10 11 8 7 7 8 9 9 12 11 8 7 9 5 6 7 8 8 9 8 5 2 4 7 9 11 12 16 16 17 17 18 16 15
9 9 9 9 9 10 10 10 10 10 10 11 11 11 12 11 12 12 13 13 13 15 15 16 16 16 17 18 19 18 17 15 15 16 19 8 13 11 11 9 8 8 6 9 11 10 10 11 11 11 10 9 8 10 9 8 9 8 7 8 10 11 11 11 4 16 4 8 5 9 5 2 8 9 7 9 8 10 10 10 11 20 17 17 16 15 16 13
9 9 9 9 9 9 10 10 11 11 11 11 12 12 11 11 11 13 13 14 14 14 15 16 16 17 17 18 18 17 16 15 15 17 17 20 16 13 13 12 10 9 10 11 11 11 11 10 10 11 10 10 9 11 11 8 10 10 9 9 11 14 13 5 3 6 6 4 7 7 7 3 9 9 12 12 9 10 10 10 13 17 16 15 16 14 13 12
10 9 9 9 9 9 10 10 11 12 12 12 12 13 13 11 11 12 13 14 14 14 15 16 16 17 18 19 17 17 13 14 12 8 6 6 15 14 14 13 12 10 11 14 13 11 11 11 11 11 9 10 9 12 11 7 8 8 11 10 11 6 12 3 4 6 6 4 5 3 6 2 7 5 9 10 11 8 7 12 12 17 17 16 15 13 13 10
10 10 10 10 10 9 10 11 11 12 12 13 13 13 13 13 12 12 13 13 14 14 15 16 17 18 18 18 18 13 12 7 2 10 7 8 8 9 8 10 10 10 13 13 13 14 13 13 11 11 10 8 11 10 9 9 9 6 12 15 17 10 11 5 7 7 4 4 1 4 8 9 10 3 11 6 7 6 5 10 11 18 16 15 15 13 12 10
10 10 10 10 10 10 11 11 12 12 13 13 13 13 13 12 13 12 12 13 14 14 15 16 16 16 19 19 17 11 6 4 5 8 9 9 10 8 9 9 8 11 12 14 13 12 13 13 12 10 9 10 11 10 10 12 11 10 10 14 14 12 10 4 2 6 2 4 8 4 2 8 7 4 7 6 6 13 16 10 17 20 17 15 14 12 10 10
10 10 10 10 10 10 11 11 12 12 12 13 12 13 12 12 12 12 12 12 13 15 14 16 16 17 18 20 15 11 9 10 4 9 10 12 8 9 8 8 6 10 13 13 14 13 13 13 12 11 10 11 13 12 10 11 11 10 10 9 13 6 11 8 2 7 4 11 7 3 7 6 7 10 10 6 8 19 14 18 19 17 17 16 15 11 9 8
10 10 10 10 10 11 11 12 12 12 13 13 12 12 11 10 11 12 11 12 12 13 15 16 16 17 17 13 10 9 12 12 14 14 11 8 11 10 9 8 10 10 13 16 14 15 13 15 14 11 11 11 8 12 9 11 13 12 13 13 9 11 13 3 7 7 7 10 4 1 5 10 10 8 12 9 8 9 18 17 19 18 15 15 15 12 7 7
10 9 10 10 11 11 11 12 12 13 12 13 13 12 11 11 10 11 11 12 13 13 14 16 16 16 16 10 8 10 12 13 9 14 13 11 10 12 10 8 11 12 13 14 16 15 14 13 15 13 10 13 12 12 11 10 10 13 13 12 10 7 8 10 7 2 8 6 5 8 9 7 11 6 13 6 10 11 13 14 19 17 18 16 16 13 7 6
11 9 10 11 11 11 11 12 13 13 13 13 13 12 11 11 10 10 11 11 12 13 13 15 15 15 14 9 9 9 10 15 13 11 14 9 12 11 12 9 13 13 13 15 15 17 16 11 15 13 15 14 11 12 10 11 9 11 15 14 13 9 7 9 6 8 7 8 12 8 10 10 8 9 9 9 10 3 7 13 16 19 17 17 13 9 6 3
11 11 9 10 11 11 11 12 13 13 12 12 12 11 11 11 10 10 11 11 11 12 13 14 14 14 10 8 10 10 4 3 5 6 6 6 8 11 10 11 12 12 15 14 16 17 15 15 12 9 10 9 9 13 11 8 14 3 7 12 14 11 9 9 10 11 8 10 10 11 11 8 8 12 7 12 13 10 10 8 19 16 18 16 14 10 7 5
11 11 11 10 11 11 11 12 13 13 13 12 11 11 10 10 11 10 10 10 12 11 12 12 14 8 10 11 11 12 5 6 3 3 8 9 9 9 11 11 12 12 14 15 16 16 16 15 14 13 9 8 12 9 11 15 12 11 10 10 11 13 11 11 11 12 12 11 10 13 11 11 10 14 10 15 13 12 12 19 25 20 19 18 13 12 9 7
12 11 11 10 11 11 11 12 13 13 12 12 11 11 10 10 10 10 10 11 11 11 11 12 11 7 9 11 14 20 23 14 8 3 5 4 9 9 9 8 9 11 13 14 14 15 15 15 15 15 15 10 8 9 5 8 12 11 9 8 9 11 12 11 8 13 14 9 11 11 10 9 11 16 5 12 10 12 12 18 20 17 18 14 15 13 10 8
13 12 12 12 11 11 11 11 11 12 12 12 11 11 10 9 9 9 10 11 10 10 11 12 9 9 9 11 8 14 18 14 15 14 7 7 8 7 11 9 9 9 10 14 15 12 15 13 15 15 11 13 8 10 10 8 10 11 10 8 9 9 10 13 11 13 12 9 14 13 9 10 12 15 13 10 8 8 7 16 18 19 16 14 13 14 11 9
13 13 12 12 11 11 11 10 11 12 12 12 11 10 9 9 10 11 10 11 13 11 10 10 8 7 7 10 14 24 25 20 19 14 12 12 11 10 11 11 11 12 11 13 12 13 12 13 14 13 10 10 14 11 6 10 8 10 9 11 10 11 9 16 16 15 13 12 15 13 10 9 16 14 15 11 11 11 7 13 19 16 15 14 13 13 11 10
13 13 13 12 12 11 10 10 11 11 12 12 12 11 12 13 13 13 13 12 13 12 9 11 9 10 9 11 9 9 17 19 18 16 12 13 13 13 10 10 8 11 12 12 9 8 9 13 14 9 9 12 13 9 8 9 9 11 11 9 11 11 11 12 19 15 18 12 14 15 10 12 14 16 13 11 10 8 13 19 17 19 16 13 13 11 10 10
14 13 13 12 12 11 9 9 11 11 12 12 12 14 16 16 16 16 13 12 9 9 8 6 7 10 7 4 9 13 13 16 15 15 15 13 13 13 12 11 10 10 10 9 12 12 12 13 6 8 11 11 10 10 10 10 10 10 11 10 10 12 12 10 18 16 18 15 12 15 13 4 13 13 13 13 11 9 7 20 19 15 13 14 12 12 10 9
14 13 12 12 11 11 9 9 10 11 11 11 12 16 15 14 7 7 9 9 7 7 8 11 9 7 14 17 15 14 12 13 16 15 16 14 15 14 14 12 9 12 11 12 14 12 7 8 9 10 10 13 12 12 11 11 11 9 9 10 11 12 15 12 15 16 18 17 13 15 16 5 8 10 10 11 12 9 10 16 18 14 14 13 13 12 11 10
15 13 12 13 11 10 9 9 10 10 10 9 14 20 20 17 11 10 8 6 7 5 6 9 10 10 4 9 25 15 13 13 13 16 17 17 15 14 14 11 11 14 12 12 11 13 10 9 10 11 14 14 14 14 13 12 14 13 13 11 13 10 13 15 15 17 19 17 13 14 13 11 9 8 8 11 10 14 12 12 13 14 13 15 13 11 8 9
15 15 11 12 11 9 9 9 9 10 9 10 9 10 7 6 6 7 11 12 13 12 8 12 18 16 19 17 10 19 12 17 15 17 16 16 14 16 16 13 13 14 13 12 13 15 10 13 14 15 13 15 17 16 17 18 13 13 13 13 14 13 12 14 16 17 17 15 14 14 12 12 10 8 5 4 5 5 11 5 8 12 13 12 12 10 10 10
14 15 14 13 11 9 9 8 9 9 7 9 10 8 8 10 8 4 8 14 16 17 18 15 19 18 17 17 7 15 4 11 15 15 17 15 16 16 15 14 15 14 14 15 12 12 13 13 16 16 17 16 18 16 16 19 19 14 12 12 12 14 12 12 14 19 17 13 14 14 14 13 10 8 7 5 5 6 5 7 16 18 17 13 12 12 11 10
13 14 14 13 11 9 8 8 8 9 8 8 9 11 11 13 12 3 4 8 16 19 20 22 18 17 17 19 21 9 6 9 11 14 13 18 17 16 15 16 17 15 14 15 13 12 14 16 15 17 16 16 15 17 16 19 17 16 12 10 12 11 12 13 14 19 16 15 12 14 15 13 11 10 9 10 11 14 17 17 14 15 16 12 10 10 11 10
14 14 13 12 12 8 8 7 9 8 7 8 10 13 14 13 13 8 8 9 10 12 19 20 20 20 20 16 13 6 10 12 15 15 16 17 18 18 16 16 16 15 16 18 15 14 14 15 17 17 16 17 16 16 16 18 15 12 11 9 11 9 11 10 13 20 16 10 10 14 17 12 12 9 10 8 9 13 16 15 14 13 15 14 12 11 11 10
15 12 10 9 8 8 7 7 5 8 11 12 14 15 13 12 11 6 9 9 10 14 18 18 18 17 20 16 9 10 13 11 13 19 17 17 16 17 15 19 18 16 16 20 20 15 14 11 15 17 17 18 18 16 16 14 12 13 13 11 10 13 14 13 8 10 12 16 14 16 13 11 10 11 9 9 9 11 9 10 11 11 11 11 12 12 12 11
14 13 9 9 9 7 5 3 7 11 11 13 15 16 14 13 11 6 7 8 11 14 14 15 13 16 16 13 12 13 12 13 16 13 17 19 18 17 15 13 13 16 17 20 20 17 15 15 16 18 18 19 19 16 17 14 12 11 14 15 11 15 13 15 14 14 10 12 16 14 10 10 12 11 11 10 9 11 9 8 8 8 8 9 11 11 11 10
15 14 11 11 9 7 3 4 9 9 11 12 14 14 14 12 7 6 6 7 10 8 14 17 12 15 12 17 14 13 13 14 14 12 16 17 16 16 11 13 11 16 20 19 17 11 12 15 17 19 19 19 19 16 16 16 12 10 12 17 18 15 13 14 17 14 11 12 13 11 11 7 10 12 13 11 11 12 9 8 8 7 6 7 8 9 9 9
11 12 11 10 8 5 5 6 4 6 9 12 14 7 6 6 2 5 5 6 11 10 16 11 16 8 13 17 17 13 14 13 11 14 19 18 19 15 15 12 13 10 13 10 9 13 13 17 17 18 20 18 17 16 15 18 13 11 10 16 16 15 14 13 18 13 8 10 12 13 10 9 12 14 17 16 15 12 11 8 7 7 8 8 9 9 9 8
13 12 10 9 8 9 7 7 8 8 7 6 5 4 5 4 1 0 5 3 6 14 15 15 12 13 16 17 21 17 11 9 13 16 15 20 19 18 17 17 15 17 15 14 15 9 15 15 18 19 19 16 16 15 14 18 15 10 13 15 15 16 15 16 16 13 11 10 13 14 17 11 7 11 19 17 14 13 12 9 8 8 9 8 9 8 9 9
7 8 9 8 8 11 10 9 9 11 9 4 4 4 5 1 2 4 5 5 6 6 9 15 12 15 15 21 22 18 16 13 14 14 14 19 21 12 15 17 15 16 17 17 12 12 12 16 16 15 15 14 13 16 17 18 15 14 13 12 13 15 15 13 12 14 10 9 10 13 13 11 9 12 14 14 13 14 13 11 9 10 9 9 8 8 8 8
10 8 7 6 6 8 8 10 12 12 10 8 2 4 1 4 3 4 6 7 5 9 12 11 13 15 18 20 19 20 20 12 13 13 15 15 20 19 13 14 14 15 16 17 17 15 14 14 17 13 14 13 15 17 17 15 16 12 17 12 13 12 9 11 10 10 9 8 12 15 17 14 6 11 14 16 15 15 15 11 10 10 10 10 9 8 7 8
7 7 7 7 7 6 7 8 9 10 11 5 5 3 3 3 6 7 8 7 6 9 8 15 13 18 20 22 17 20 20 16 17 17 15 15 18 19 13 15 14 12 13 14 17 18 15 17 12 10 14 12 14 15 16 14 16 17 11 13 11 9 9 9 7 8 6 9 14 17 16 18 12 9 8 8 10 17 17 16 15 13 12 10 9 8 8 8
5 6 8 8 8 7 7 5 5 11 9 6 5 6 5 6 5 9 7 5 9 12 11 12 14 15 21 21 15 19 18 18 16 18 17 15 16 17 16 14 13 14 15 16 15 16 16 15 12 14 12 15 14 13 14 15 14 15 13 11 11 9 6 8 10 10 12 10 13 18 14 9 10 2 6 10 15 15 13 13 14 13 12 11 10 9 8 8
5 6 9 9 9 8 9 8 7 4 3 5 5 4 4 7 9 11 11 9 2 11 10 14 15 17 18 20 17 20 21 17 17 19 19 17 16 18 18 16 16 13 12 15 13 14 13 16 19 16 16 14 14 14 12 15 14 16 15 12 12 12 10 7 10 6 9 14 15 16 17 5 7 8 8 12 15 14 14 14 14 13 12 11 10 9 8 9
6 7 7 8 9 8 5 7 5 2 3 5 6 6 4 7 8 13 13 10 5 9 4 12 15 16 19 16 17 18 17 18 17 16 20 15 18 16 17 20 20 19 13 13 12 15 13 15 16 15 11 14 16 14 12 11 13 14 14 13 11 12 9 7 10 9 9 8 12 12 9 6 9 3 7 13 14 14 13 13 13 12 12 11 10 10 9 9
5 8 9 8 9 10 9 10 5 3 3 4 5 6 8 9 8 9 10 8 0 7 10 12 15 17 18 17 16 19 17 14 19 18 18 16 16 15 18 18 22 18 13 11 11 8 19 12 12 16 12 17 18 17 14 15 12 13 14 13 12 13 9 10 5 7 7 9 8 6 3 3 6 11 10 13 14 14 14 14 14 13 11 10 9 9 8 8
4 6 7 7 8 8 9 7 7 5 5 5 5 8 12 9 5 2 4 10 8 6 9 11 14 15 14 14 17 20 23 13 19 15 15 18 18 17 20 15 18 21 14 11 10 10 14 14 15 19 18 18 21 17 17 14 10 12 14 15 14 12 13 2 3 8 2 2 4 7 7 9 7 6 11 13 13 14 13 14 14 13 12 11 9 9 9 8
6 4 6 8 10 9 9 9 6 6 5 6 7 10 9 8 6 8 3 8 6 12 9 8 13 12 14 14 14 20 20 20 18 15 13 17 15 19 20 18 19 21 21 12 10 10 9 12 16 18 21 15 17 18 18 16 12 9 14 13 11 13 13 5 4 4 5 6 3 8 12 10 10 4 8 13 13 13 13 12 13 13 12 12 9 8 8 8
5 4 7 10 11 10 10 9 8 7 7 6 9 9 6 10 9 12 9 8 9 9 5 6 4 11 13 14 14 19 20 17 16 17 11 16 9 20 19 16 23 20 21 19 8 12 13 11 14 17 16 16 15 17 18 19 19 15 13 8 10 7 11 6 2 6 8 7 4 7 13 11 8 9 12 15 14 14 13 13 11 11 11 12 11 10 9 7
5 3 3 11 13 12 12 12 10 7 7 7 8 9 8 10 11 10 7 7 6 6 4 6 6 10 11 13 13 18 20 16 16 16 12 14 13 20 20 15 19 24 22 20 14 9 11 9 10 16 17 15 13 14 13 14 17 21 12 14 12 9 11 8 6 7 7 5 6 6 8 5 5 11 17 17 16 16 14 12 11 11 11 10 10 8 8 7
5 4 5 9 10 11 12 12 8 8 7 9 8 9 6 8 5 8 10 9 9 7 2 5 7 6 10 12 14 14 18 21 14 14 15 13 14 20 21 19 15 23 21 22 15 12 7 8 7 12 18 14 14 12 14 14 16 17 15 13 12 8 7 9 7 11 8 5 7 5 5 5 4 2 15 15 15 16 15 14 12 11 10 11 10 9 7 7
1 3 3 7 9 11 11 9 8 9 9 8 11 10 10 7 5 9 12 15 12 4 2 3 6 6 5 8 12 16 12 17 15 13 13 13 15 10 18 18 14 20 21 22 19 11 4 8 5 11 14 14 14 15 16 17 14 13 13 12 14 14 11 12 10 11 13 8 5 5 4 5 3 5 3 14 14 14 14 14 12 12 11 11 9 9 8 7
1 2 6 10 9 12 11 9 8 8 7 9 8 8 7 4 7 12 11 16 11 6 9 5 5 6 6 9 11 10 13 16 13 13 12 10 16 11 15 23 19 19 18 14 16 12 6 4 7 7 14 14 15 16 18 18 18 19 17 14 14 11 10 10 10 9 12 10 10 3 6 2 5 6 5 13 14 15 15 14 13 12 12 10 10 10 8 7
3 4 8 12 10 12 9 7 7 7 9 9 11 12 10 5 7 11 16 8 8 6 5 4 3 6 5 8 12 12 16 12 16 13 12 14 13 16 13 23 21 20 19 12 18 11 4 3 10 10 11 14 18 15 18 20 20 17 14 14 14 13 14 10 8 3 4 6 7 4 3 2 5 8 2 12 15 13 12 14 15 12 11 11 11 10 9 8
1 3 5 7 10 10 8 6 7 8 9 10 11 13 8 6 9 12 11 5 5 3 3 3 6 5 8 11 13 11 11 8 16 15 12 12 10 16 14 23 23 15 17 11 10 12 6 6 10 10 9 11 12 13 15 17 16 12 13 15 17 15 16 13 9 3 2 7 11 4 5 3 3 0 8 14 16 16 15 14 14 13 11 11 11 9 9 9
2 4 2 7 7 8 8 6 6 4 7 10 10 12 9 6 10 11 8 7 8 7 4 3 2 5 8 13 13 12 12 14 8 14 11 12 7 16 16 21 22 15 16 15 9 14 6 6 8 10 12 12 12 14 16 16 17 11 15 18 21 19 15 8 8 6 6 7 16 3 5 8 7 6 13 14 15 15 14 14 13 12 12 11 10 10 10 9
2 1 3 6 7 7 9 8 7 7 8 9 10 10 6 7 9 9 9 6 8 7 6 5 1 4 12 13 10 11 13 13 11 9 12 10 8 11 11 18 20 16 17 10 14 12 5 7 8 9 11 11 12 10 9 12 12 17 18 20 17 19 19 12 6 6 6 4 4 4 17 17 13 12 16 16 15 16 15 14 13 12 12 11 11 10 10 9
2 3 6 6 6 8 8 9 10 9 7 5 6 3 7 9 6 6 5 6 4 6 6 5 4 5 8 11 7 8 13 13 13 14 14 12 10 11 16 18 19 19 17 9 14 8 5 7 12 12 14 2 6 12 13 16 18 16 13 14 16 17 17 12 6 5 3 3 5 3 22 20 15 14 14 16 15 15 14 14 13 12 12 11 11 12 12 11
3 5 7 9 6 5 9 8 10 7 7 9 9 6 4 9 6 5 3 6 9 5 5 2 6 11 12 8 4 4 7 13 9 9 17 12 13 14 13 17 17 12 17 14 14 7 7 4 8 1 4 4 7 5 7 14 11 14 16 14 13 12 15 11 2 6 10 1 6 13 15 18 15 14 14 14 14 14 13 12 12 13 13 13 13 12 12 11
6 5 6 3 5 5 4 8 12 9 11 8 6 6 8 8 8 6 5 6 4 6 5 4 7 9 11 9 6 6 3 7 2 6 5 0 4 7 10 16 17 12 16 14 14 6 4 7 5 4 5 9 4 4 7 10 14 13 16 16 12 9 8 8 6 13 12 13 18 19 15 16 15 15 13 11 11 12 10 9 11 13 13 13 13 13 12 11
4 4 3 7 6 6 9 7 7 6 5 2 3 4 6 8 9 8 6 6 4 6 6 9 10 9 10 10 7 9 2 3 6 4 3 3 3 6 7 6 9 10 13 14 12 9 8 4 7 6 4 6 7 3 4 4 4 13 14 16 14 1 9 1 16 19 20 17 16 20 20 15 10 13 13 10 10 10 10 11 13 12 13 13 13 12 11 10
3 1 5 4 5 5 7 5 5 4 3 3 5 7 7 8 9 7 9 7 9 8 6 9 9 10 9 6 7 9 4 2 6 4 11 6 4 4 1 7 10 8 13 9 8 9 9 2 3 5 6 8 8 8 5 7 12 11 7 10 11 8 7 8 8 7 15 14 18 19 14 11 10 14 11 11 12 13 14 13 11 11 12 13 13 12 11 11
5 2 4 3 3 2 3 3 2 3 2 3 5 6 4 6 7 7 7 8 10 12 10 8 8 6 9 7 5 7 9 8 6 8 10 10 6 4 4 9 8 12 10 9 7 4 6 5 4 4 6 6 6 10 10 11 8 5 7 10 8 10 9 9 10 3 15 22 15 9 9 13 18 17 18 15 15 14 13 12 12 12 11 12 12 12 11 10
Wind_Direction
328 330 330 328 328 325 328 331 328 327 331 325 325 320 320 319 319 324 319 324 323 319 318 318 320 320 325 321 322 322 319 311 304 290 264 249 191 107 90 118 151 161 182 229 221 231 201 213 220 226 228 229 218 236 241 210 243 224 227 244 242 242 242 241 253 213 77 94 47 212 149 203 191 174 165 281 132 178 153 107 93 96 89 94 97 104 110 118
320 323 325 325 324 323 324 325 324 325 324 325 319 317 317 318 316 314 320 319 321 319 322 318 316 321 322 321 321 320 320 299 288 276 259 270 152 145 138 141 160 177 203 230 223 210 215 205 219 213 224 225 209 232 221 202 212 226 226 231 244 228 244 282 113 20 18 105 63 50 294 197 156 184 146 199 197 122 195 128 119 93 100 100 109 116 120 127
318 317 319 320 318 318 319 320 318 317 317 316 319 310 309 316 316 315 316 317 315 319 319 319 318 322 321 321 317 320 308 300 281 264 260 221 178 158 155 158 169 176 201 215 220 226 216 207 206 210 216 236 203 226 204 208 189 226 242 225 234 256 256 152 49 79 56 349 136 193 174 267 107 209 124 209 204 137 196 147 151 123 121 119 119 122 121 124
310 312 313 314 315 315 317 316 318 317 317 315 319 318 308 304 313 315 316 315 313 315 319 319 318 320 319 316 321 315 298 285 272 246 70 84 157 163 160 160 173 182 220 241 248 237 223 230 211 213 218 232 212 238 176 211 202 187 232 239 233 213 319 20 87 63 52 11 70 43 183 281 144 19 165 193 195 168 212 162 155 135 128 125 122 122 123 136
312 307 306 312 311 311 314 315 315 318 316 314 313 315 315 309 307 310 312 313 315 316 319 317 318 318 318 316 316 305 297 283 288 87 92 103 122 139 153 169 177 203 221 239 250 259 237 233 224 211 236 224 234 209 218 207 215 232 224 240 253 305 283 337 201 203 107 306 343 64 191 215 166 84 225 203 208 192 234 140 145 126 123 122 127 123 126 139
299 303 303 303 308 309 310 314 313 314 314 314 312 310 313 314 311 308 305 309 312 311 314 319 316 319 317 318 305 285 274 224 84 111 127 119 136 161 172 186 192 220 222 235 244 235 230 230 238 213 216 246 239 223 192 246 181 244 230 245 256 255 313 265 272 105 67 150 264 204 330 52 157 212 256 223 79 54 51 82 118 120 130 128 119 123 127 136
292 295 299 298 298 307 308 308 315 312 313 314 314 310 309 312 310 306 307 311 313 315 314 316 317 320 321 310 286 258 245 272 313 135 149 155 141 156 172 183 180 214 221 228 232 233 214 227 227 219 224 230 245 243 217 211 224 235 246 234 234 294 242 347 212 115 179 266 241 244 39 213 219 211 207 205 131 109 107 99 108 112 104 111 111 114 113 114
290 288 293 295 296 300 306 309 309 314 311 309 311 313 309 309 309 307 309 310 311 316 314 313 316 317 327 322 312 222 230 246 253 147 164 154 157 159 162 188 188 195 212 221 221 224 216 223 216 224 228 229 217 237 225 219 220 226 243 263 271 202 238 167 258 102 225 216 246 232 197 216 199 233 165 207 94 109 106 109 115 112 116 106 106 95 79 110
280 285 286 291 292 295 303 306 307 308 308 306 304 308 308 306 308 311 306 306 308 309 310 312 313 318 314 290 284 291 242 230 241 144 154 178 164 160 172 187 187 194 208 218 225 226 224 214 227 222 220 228 244 245 223 233 218 223 242 239 260 269 220 221 216 215 214 216 203 186 224 198 206 354 189 142 148 179 134 136 130 122 108 103 92 96 92 105
275 279 279 287 292 294 298 304 305 304 305 303 304 303 308 307 303 304 307 305 306 307 309 311 310 318 303 283 272 257 252 249 185 154 165 188 166 166 193 214 175 199 209 215 220 227 221 218 224 215 249 250 236 235 247 224 256 197 218 247 243 228 234 241 224 216 220 223 204 220 210 204 149 210 171 136 136 121 165 135 131 123 116 100 104 97 93 69
268 273 280 282 290 294 296 300 304 301 300 302 300 304 303 307 301 299 304 305 303 305 306 308 311 310 296 284 255 229 28 287 135 171 194 173 193 186 198 219 186 202 212 215 222 223 225 234 216 239 229 245 259 273 268 240 238 319 282 215 235 250 213 230 211 225 208 223 202 215 204 194 146 233 185 161 142 170 193 147 129 121 104 113 114 113 110 120
264 263 272 279 281 291 295 298 301 298 299 302 301 297 301 304 302 297 294 299 301 296 299 304 312 296 285 276 246 231 128 225 101 186 190 203 214 219 212 209 198 208 209 218 219 222 229 226 233 226 233 189 253 265 247 260 244 223 208 260 232 225 240 217 204 219 198 217 191 217 209 189 163 220 243 162 145 173 185 111 118 111 115 117 119 112 117 100
263 262 263 271 278 284 293 297 298 300 300 298 299 298 296 300 307 299 291 290 286 300 305 306 301 286 286 275 246 249 270 297 303 53 285 229 219 212 229 227 230 213 215 225 221 221 225 230 230 237 237 248 235 217 14 259 242 243 237 243 247 218 228 215 209 221 198 210 180 204 221 180 175 213 110 99 153 189 170 135 124 118 117 122 120 114 109 106
260 260 258 261 271 278 289 298 296 296 299 298 298 300 298 301 291 293 286 280 289 287 288 290 286 282 274 254 278 257 261 264 262 269 256 246 256 212 209 220 227 239 234 233 236 223 224 226 234 239 251 241 246 230 244 243 221 224 233 212 246 223 214 204 209 215 206 192 193 200 233 180 182 199 130 162 149 193 163 136 127 120 122 118 113 115 114 111
251 254 256 259 263 272 284 298 301 297 298 297 293 294 296 276 264 261 271 271 259 262 286 285 260 265 243 262 245 252 261 272 273 254 234 235 226 234 214 201 217 223 229 232 237 235 218 220 228 235 234 248 263 266 241 243 207 222 224 220 221 243 209 201 191 206 210 194 195 194 234 200 186 169 149 166 159 186 167 92 125 129 122 117 114 113 112 110
247 248 252 253 259 272 281 290 298 295 291 295 294 290 276 264 258 261 267 268 287 300 269 265 240 225 274 283 260 220 215 230 231 236 238 225 223 228 215 212 209 217 220 221 238 245 225 217 220 218 236 236 242 239 239 230 216 205 224 220 219 220 240 195 180 197 212 188 189 200 215 231 187 138 152 156 174 188 122 117 117 121 118 117 124 116 115 116
248 244 246 249 259 266 279 284 290 296 292 292 295 278 263 257 256 259 255 262 261 234 243 249 223 202 248 239 299 250 209 213 217 219 226 226 225 221 219 212 205 213 212 221 220 234 215 215 176 222 229 238 220 216 229 221 213 206 202 238 226 215 226 228 160 196 200 205 176 206 231 353 96 135 168 173 198 193 153 119 130 130 131 131 123 111 105 103
248 248 247 249 253 264 274 282 284 286 293 293 289 278 279 278 282 272 249 240 241 241 230 240 274 269 250 252 267 231 214 208 200 212 214 210 223 216 221 211 191 211 198 207 213 223 174 205 187 216 209 224 217 212 220 210 212 198 200 218 231 224 227 224 161 180 197 202 178 205 233 164 141 156 161 180 193 180 201 135 127 124 121 119 87 81 83 77
255 242 243 246 245 258 267 276 279 283 287 296 281 273 261 262 268 253 243 189 199 184 213 200 193 183 33 194 214 232 218 207 191 203 202 202 198 219 215 217 197 199 198 203 179 209 168 212 199 218 212 205 216 209 216 226 204 214 200 211 231 215 216 237 169 171 190 189 192 204 210 166 158 151 170 188 179 202 184 128 117 118 121 90 92 97 85 75
265 257 252 247 245 246 252 264 272 274 287 284 277 267 233 223 203 225 218 199 216 208 242 182 199 218 277 284 207 217 233 192 196 193 202 188 186 201 212 198 195 206 201 199 173 203 168 203 206 209 211 205 213 215 220 236 230 214 213 208 225 226 223 225 160 169 182 194 201 202 193 152 155 156 127 86 54 17 89 108 111 128 109 99 99 96 93 84
249 255 248 243 241 241 247 251 264 272 273 272 279 273 249 213 217 256 182 209 216 232 239 240 197 223 248 267 266 189 190 177 198 180 203 172 187 189 198 190 193 200 204 197 195 185 206 211 215 211 213 212 208 217 221 238 250 239 215 213 223 227 231 191 176 160 178 212 181 207 145 152 129 108 103 98 111 79 51 101 80 96 98 99 101 97 89 84
235 237 240 241 238 237 248 256 260 265 254 269 275 259 257 269 328 268 260 223 220 227 239 245 250 242 246 263 279 294 175 193 200 179 199 172 181 197 175 197 192 199 192 198 199 184 209 216 213 213 212 221 214 213 220 235 243 254 258 203 229 218 249 189 191 164 171 210 181 185 138 132 116 102 79 57 71 61 57 55 67 81 95 94 86 92 97 96
241 231 227 226 234 236 245 255 258 255 259 245 246 248 254 272 280 320 318 292 283 238 231 237 241 242 252 259 250 214 226 216 193 194 190 183 176 204 175 195 193 198 191 198 203 193 205 216 212 211 211 220 219 214 214 230 238 243 244 244 211 213 214 205 201 162 176 198 185 171 136 130 122 109 98 78 75 74 63 64 69 71 86 98 110 104 102 96
244 236 219 219 225 232 244 253 254 248 242 251 255 254 262 257 258 314 280 259 270 236 215 225 237 235 238 233 218 229 217 224 225 189 194 185 191 193 203 193 195 200 198 199 210 205 210 203 204 212 209 212 220 210 214 221 222 230 243 240 216 216 204 241 172 169 163 188 228 163 126 143 144 137 134 106 94 94 92 80 78 85 85 85 85 83 85 91
241 230 208 215 225 226 238 317 253 242 248 243 246 244 247 259 283 247 272 269 251 261 269 241 209 227 233 234 239 221 213 238 230 195 185 189 186 186 211 186 208 200 206 197 211 219 210 208 191 213 209 208 217 214 211 214 226 214 231 243 235 226 200 229 148 165 179 197 218 206 132 165 155 162 149 140 117 102 102 106 91 87 87 81 81 83 84 80
232 220 201 204 207 213 140 239 251 247 230 238 237 229 230 239 218 275 268 253 267 253 191 229 178 217 204 215 222 224 212 230 224 211 179 191 198 196 189 204 204 198 206 200 207 219 217 198 201 202 210 206 213 221 204 213 221 217 210 236 252 254 218 217 142 175 191 214 199 207 164 173 176 186 158 152 126 110 101 106 102 87 85 83 80 84 81 86
225 217 205 201 199 185 212 245 274 297 225 233 237 237 209 210 90 133 235 229 263 212 206 176 172 163 182 198 203 199 211 208 205 228 178 180 204 193 208 198 183 232 200 209 196 211 214 200 205 201 206 207 208 216 202 203 218 221 208 222 239 254 243 218 150 180 199 204 231 210 210 206 195 188 156 149 128 122 119 116 111 93 89 87 82 79 85 91
208 208 197 192 209 200 248 299 306 280 261 323 268 136 177 158 53 66 240 262 278 147 191 168 192 139 189 175 201 203 222 145 193 214 200 169 212 185 223 199 194 205 201 205 211 181 199 208 207 199 205 206 210 209 202 202 216 217 210 208 224 242 252 236 172 173 213 202 224 217 197 230 203 177 150 157 147 139 132 128 123 113 97 91 90 87 85 84
205 204 199 200 216 234 263 270 268 266 288 283 358 175 140 134 272 192 230 242 142 139 108 147 158 156 194 177 194 204 214 184 198 173 194 171 207 207 207 217 200 203 216 209 217 190 187 221 208 208 200 210 204 201 218 197 209 221 236 184 222 231 252 268 217 191 182 207 224 222 195 228 199 133 146 165 169 161 141 139 133 121 112 107 103 96 98 96
215 200 196 203 229 238 243 241 249 258 265 282 248 253 131 145 181 208 196 244 169 131 187 128 185 168 190 178 187 193 209 201 201 161 190 182 190 222 213 224 214 201 213 215 226 212 181 201 241 195 207 211 202 205 216 198 209 216 240 222 207 228 244 264 240 203 190 213 227 218 202 215 201 171 166 178 185 157 139 140 135 125 120 118 113 113 109 90
205 204 209 199 230 233 237 242 242 233 239 257 258 219 225 201 219 203 195 228 206 126 164 144 176 168 186 182 181 188 210 206 195 170 179 178 187 208 205 205 229 207 211 216 216 216 213 179 231 219 201 207 206 202 207 208 194 220 224 235 195 208 233 254 233 172 208 223 228 230 211 203 228 173 178 193 173 142 145 146 143 136 131 126 121 116 103 88
218 220 215 222 247 260 247 262 338 304 244 214 230 209 196 198 237 219 208 244 257 140 174 168 187 180 189 183 185 184 197 207 197 178 181 181 182 194 202 204 191 196 199 205 208 198 218 200 199 215 196 213 190 219 191 210 192 211 226 223 203 188 199 224 228 193 206 217 216 226 209 188 229 117 163 126 121 123 132 143 140 135 133 130 123 114 106 91
230 228 229 244 252 242 249 247 274 294 161 174 205 207 177 215 201 225 249 195 78 151 165 176 181 190 188 178 193 185 199 202 190 179 185 184 193 194 204 215 192 216 192 199 202 183 215 210 183 216 182 201 215 208 186 202 192 208 211 216 206 200 194 219 218 227 215 219 233 222 208 182 85 63 60 109 115 116 124 132 131 127 123 122 118 112 100 87
235 231 230 227 237 246 251 271 262 281 202 149 212 187 240 221 216 219 236 256 138 212 189 192 173 189 189 187 189 184 190 207 197 174 184 183 198 187 199 215 205 205 217 178 216 181 197 202 195 183 201 184 226 224 202 198 187 209 213 216 215 207 204 202 219 214 225 235 222 235 216 139 173 114 117 107 110 116 122 125 121 118 113 109 104 96 91 84
255 253 249 245 238 240 233 231 209 228 229 203 200 212 193 217 231 196 217 272 297 193 218 193 176 182 185 194 189 190 198 188 204 172 184 193 195 193 194 201 209 208 204 189 206 198 208 225 171 190 212 184 217 217 219 188 198 207 213 224 207 209 201 220 195 238 218 228 230 229 51 29 84 124 112 117 122 124 128 125 125 120 119 113 103 97 89 83
276 240 222 239 235 229 221 213 208 194 215 200 227 214 214 209 185 342 349 326 276 212 237 218 169 189 180 193 190 188 193 213 188 186 188 200 194 199 193 201 205 206 191 212 169 194 191 214 189 176 210 200 208 208 218 201 203 184 215 220 206 197 229 211 178 233 70 329 235 91 122 82 120 116 130 127 129 138 143 138 128 126 119 112 103 99 92 81
249 259 235 233 236 226 207 205 191 197 210 229 233 222 229 246 279 310 2 337 291 317 280 216 170 194 175 193 188 188 182 215 186 193 182 195 196 203 192 200 209 206 215 198 175 224 206 209 201 180 197 205 201 211 220 216 217 182 216 225 197 202 233 214 223 162 237 243 197 139 135 152 150 152 161 147 144 150 148 142 138 124 123 112 107 104 100 95
272 259 262 247 233 204 196 187 186 191 215 231 237 259 277 276 313 309 311 319 337 318 352 239 223 228 178 197 182 183 185 206 182 185 197 186 212 191 196 198 201 214 212 193 205 187 223 208 199 182 194 197 190 210 221 230 209 221 205 179 212 177 222 205 228 213 203 210 211 116 144 156 178 137 163 162 160 163 160 145 141 136 123 113 111 107 103 97
263 298 270 236 212 186 180 178 189 200 210 225 239 240 244 252 258 264 282 299 279 278 223 279 241 228 212 199 179 181 186 204 195 189 198 175 218 176 203 193 192 212 209 198 206 182 209 230 184 173 191 193 189 203 214 210 194 222 201 194 212 237 217 220 191 241 219 219 213 145 186 174 173 152 171 170 164 156 153 147 142 131 124 119 113 111 102 99
242 213 209 167 160 168 171 177 190 208 222 225 225 236 274 275 262 302 292 292 292 282 295 253 265 269 246 220 194 178 186 205 197 187 215 152 222 164 202 191 196 199 205 201 209 192 200 236 215 179 192 187 199 196 214 204 197 196 213 198 189 234 226 238 184 211 214 230 219 137 195 164 58 143 173 167 162 155 150 147 137 133 126 117 113 109 107 102
248 292 115 174 158 167 166 181 204 210 221 241 252 266 263 272 313 286 284 283 268 190 225 163 255 248 274 303 213 186 179 204 203 191 206 167 199 159 203 188 199 190 207 199 214 184 217 189 230 181 184 197 207 193 212 212 213 198 212 212 201 201 218 206 223 192 218 214 216 178 152 96 70 352 251 155 149 145 143 136 133 126 117 112 109 110 113 110
223 249 154 184 158 173 178 190 216 217 236 232 228 227 242 49 289 287 283 268 247 268 196 267 269 272 290 255 281 232 181 199 197 193 202 198 192 215 187 200 191 193 196 196 206 172 222 169 224 197 195 197 208 189 209 220 214 207 196 216 214 197 209 217 226 203 212 226 239 276 109 129 360 333 336 142 146 142 139 136 128 122 117 116 114 115 119 111
186 282 125 166 164 180 191 224 213 218 229 235 257 257 264 250 279 286 276 243 236 205 278 250 302 330 281 277 274 281 199 193 198 199 200 201 191 217 178 201 191 197 195 199 203 162 156 224 203 203 193 212 213 201 188 219 226 230 212 208 218 225 193 220 234 235 216 215 215 76 77 19 4 340 52 121 131 131 127 127 124 121 121 120 122 124 118 116
84 176 140 170 176 196 217 218 215 223 234 241 241 254 237 263 253 255 249 236 255 278 297 335 310 295 303 284 281 267 246 211 188 193 210 212 193 201 191 202 192 192 190 182 202 140 177 204 213 189 197 194 202 196 193 202 216 215 210 201 224 240 226 208 224 177 238 220 237 146 150 155 137 66 118 116 126 130 126 123 125 126 126 124 122 119 118 112
315 320 253 161 192 207 217 239 270 271 267 262 250 241 252 285 267 251 272 274 261 204 240 286 333 347 313 291 266 275 287 282 178 189 217 206 200 194 199 204 194 194 193 178 190 140 200 168 215 194 191 191 194 197 197 188 204 207 216 210 207 222 228 210 218 191 217 220 234 164 88 101 122 103 126 125 128 126 126 127 126 125 125 125 123 124 117 114
233 114 148 150 193 202 245 266 260 266 282 283 291 267 248 238 263 249 238 241 302 309 296 287 342 282 266 273 257 259 254 272 217 164 201 210 189 196 215 200 187 196 185 181 135 151 187 188 208 210 205 199 206 210 199 191 197 212 201 216 207 214 234 235 215 223 217 200 58 106 143 140 147 148 143 141 137 133 134 133 130 129 125 123 125 123 123 118
356 251 150 174 171 221 237 225 234 230 252 291 280 280 276 281 246 255 131 264 233 254 271 259 267 270 254 248 251 281 263 264 204 172 190 206 181 195 220 214 185 196 172 173 174 146 193 203 206 220 231 70 334 215 205 216 199 210 210 213 218 211 234 240 210 232 254 218 84 106 140 140 159 156 150 146 140 136 136 134 130 131 130 128 125 123 119 111
260 161 188 162 190 180 216 228 230 243 277 287 265 286 261 274 252 241 257 265 267 270 272 282 238 240 260 256 239 249 275 319 205 172 180 214 172 198 209 196 191 164 141 187 166 156 183 221 190 219 252 279 234 347 273 228 227 197 209 216 233 216 210 229 112 60 67 340 140 145 141 133 147 153 150 143 138 136 135 131 134 132 127 128 126 123 114 106
223 342 1 340 243 346 304 334 304 243 229 234 289 278 280 280 285 273 284 307 310 267 248 268 277 256 238 245 239 246 282 333 187 81 92 169 150 199 205 179 182 145 180 182 183 165 190 209 140 213 258 216 239 250 337 254 211 217 206 213 229 241 229 215 150 93 97 111 128 140 136 129 142 146 139 130 129 129 126 130 130 135 135 130 126 118 112 108
6 358 335 358 342 323 342 332 328 277 257 27 278 295 299 294 278 283 271 261 268 281 279 271 259 250 254 239 222 222 13 341 4 318 320 88 114 266 219 216 150 175 189 186 187 156 219 143 122 176 197 245 198 167 215 311 284 226 207 208 214 355 20 57 95 96 96 102 119 119 122 124 131 135 131 126 124 129 134 145 141 134 134 131 122 116 111 111
308 190 292 350 339 331 322 340 303 346 308 265 270 281 285 277 282 309 289 277 267 270 267 267 279 274 253 258 331 287 240 31 70 200 270 248 191 214 268 205 171 175 195 184 194 146 198 126 190 185 190 207 171 99 130 79 56 37 43 30 33 44 74 58 81 95 113 124 123 121 122 134 134 130 115 123 137 141 142 141 135 133 131 128 118 115 115 111
343 47 43 39 323 318 303 277 288 317 266 315 282 300 294 302 308 313 301 283 267 259 265 279 285 285 281 264 267 333 348 32 63 130 248 247 242 229 229 292 215 188 195 197 123 160 164 158 161 186 202 189 163 147 117 105 92 70 22 6 18 67 93 79 77 96 129 138 139 154 162 142 139 137 134 141 143 143 138 140 135 132 130 122 116 117 116 111